Regional Weather Roundup
Issued by NWS Mt. Holly, NJ

Home | Current Version | Previous Version | Text Only | Print | Product List | Glossary On
Versions: 1 2 3 4 5 6 7 8 9 10 11 12 13 14 15 16 17 18 19 20 21 22 23 24 25 26 27 28 29 30 31 32 33 34 35 36 37 38 39 40 41 42 43 44 45 46 47 48 49 50
000
ASUS41 KPHI 011510
RWRPHI

REGIONAL WEATHER ROUNDUP
NATIONAL WEATHER SERVICE MOUNT HOLLY NJ
1100 AM EDT WED OCT 01 2014

NOTE:  "FAIR" INDICATES FEW OR NO CLOUDS BELOW 12,000 FEET WITH NO
SIGNIFICANT WEATHER AND/OR OBSTRUCTIONS TO VISIBILITY.

 * = STATION DOES NOT REPORT PRECIPITATION (E.G. RAIN, SNOW, ETC.)
        OR FOG.

NJZ015>026-011600-
SOUTHERN NEW JERSEY

CITY           SKY/WX    TMP DP  RH WIND       PRES   REMARKS
POMONA         CLOUDY    64  62  93 N7        30.03S FOG
RIO GRANDE*    CLOUDY    66  57  72 N10       30.03F
MILLVILLE      CLOUDY    66  58  75 NE10      30.04R
WRIGHTSTOWN    CLOUDY    64  59  82 N10       30.03R
MOUNT HOLLY    CLOUDY    65  58  78 NE6       30.04S
TRENTON        CLOUDY    67  56  67 E10       30.04S

$$
NJZ001>014-011600-
NORTHERN NEW JERSEY

CITY           SKY/WX    TMP DP  RH WIND       PRES   REMARKS
SUSSEX         CLOUDY    63  57  81 N7        30.08S
ANDOVER*         N/A     61  56  83 CALM      30.08R
MORRISTOWN     CLOUDY    63  59  88 N7        30.07R FOG
NEWARK         LGT RAIN  62  60  93 N10       30.06R
TETERBORO      LGT RAIN  63  57  81 N8        30.05R
CALDWELL       CLOUDY    61  56  83 VRB3      30.07R
SOMERVILLE     CLOUDY    66  56  70 N9        30.04R
ALLAIRE*       CLOUDY    63  55  77 N8        30.04S
TOMS RIVER*    CLOUDY    63  61  94 N3        30.04S

$$
PAZ043-044-047-054-055-060>062-066>071-011600-
EASTERN PENNSYLVANIA

CITY           SKY/WX    TMP DP  RH WIND       PRES   REMARKS
PHILADELPHIA   PTSUNNY   69  57  65 E9        30.05R
NORTH PHILA    CLOUDY    69  55  60 NE9       30.06S
BLUE BELL      PTSUNNY   68  57  68 CALM      30.05S
DOYLESTOWN     MOSUNNY   66  57  72 VRB6      30.05S
QUAKERTOWN*    PTSUNNY   66  57  72 NE5       30.07S
POTTSTOWN      CLOUDY    66  57  72 CALM      30.07S
LANCASTER      CLOUDY    63  58  83 CALM      30.07R HAZE
COATESVILLE    CLOUDY    63  57  82 E3        30.08R
READING        PTSUNNY   68  57  68 N7        30.06R
ALLENTOWN      MOSUNNY   66  55  67 NE7       30.07R
MOUNT POCONO   PTSUNNY   62  53  72 E9        30.09R
HAZLETON       CLOUDY    61  55  82 CALM      30.12R
WILKES BARRE   CLOUDY    67  55  65 CALM      30.07R

$$
DEZALL-MDZ008-012-015-019-020-011600-
DELAWARE AND EASTERN MARYLAND

CITY           SKY/WX    TMP DP  RH WIND       PRES   REMARKS
WILMINGTON     CLOUDY    68  58  70 NE10      30.05S
DOVER          CLOUDY    67  60  78 N8        30.02S
GEORGETOWN     CLOUDY    67  61  81 NE10      30.03R
EASTON         PTSUNNY   70  66  88 E9        30.06F
PATUXENT       PTSUNNY   68  61  78 NE6       30.03R
OCEAN CITY     CLOUDY    69  63  81 NE9       30.01R
WALLOPS ISLAND CLOUDY    71  64  78 NE12      30.01R
CAMBRIDGE      CLOUDY    66  61  82 NE7       30.02S
SALISBURY      CLOUDY    71  62  73 N9        30.01S

$$
PAZ001-021-NYZ056-072-MDZ011-DCZ001-011600-
OTHER NEARBY LOCATIONS

CITY           SKY/WX    TMP DP  RH WIND       PRES   REMARKS
HARRISBURG     CLOUDY    64  59  83 VRB5      30.06R FOG
STATE COLLEGE  CLOUDY    59  59 100 CALM      30.08S FOG
WILLIAMSPORT   CLOUDY    64  59  83 SE5       30.07R
BINGHAMTON     CLOUDY    63  57  81 CALM      30.09R
NEW YORK CITY  CLOUDY    63  57  81 VRB5      30.08R
BALTIMORE      PTSUNNY   68  61  77 NE9       30.04R
WASHINGTON DC  CLOUDY    69  61  75 NE6       30.05R

$$



USA.gov is the U.S. government's official web portal to all federal, state and local government web resources and services.